Tracking 21606 objects as of 24-Oct-2020
HD Live streaming from Space Station
objects crossing your sky now

MOLNIYA 1-80

Track MOLNIYA 1-80 now!
MOLNIYA 1-80 is classified as:


NORAD ID: 21118
Int'l Code: 1991-012A
Perigee: 1,804.5 km
Apogee: 37,763.0 km
Inclination: 64.6 °
Period: 701.6 minutes
Semi major axis: 26154 km
RCS: 6.3095 m2 (large)
Launch date: February 15, 1991
Source: Commonwealth of Independent States (former USSR) (CIS)
Launch site: PLESETSK MISSILE AND SPACE COMPLEX (PKMTR)
aabbcc
Your satellite tracking list
Your tracking list is empty




NASA's NSSDC Master Catalog

Two Line Element Set (TLE):
1 21118U 91012A   20297.40780897 -.00000238  00000-0  00000+0 0  9992
2 21118  64.6058  41.4669 6874185 284.8370  13.2327  2.05246922218646
Source of the keplerian elements: AFSPC